Wind_Speed
5 4 4 3 2 1 2 4 4 6 7 7 8 9 10 10 10 9 9 9 8 8 8 8 8 9 9 9 9 9 9 9 9 8 8 8 8 8 8 7 7 7 7 7 6 5 4 4 4
6 5 4 3 2 1 2 3 4 6 6 7 8 8 10 9 9 9 9 9 9 8 8 8 8 9 9 9 9 9 8 9 9 8 8 8 8 8 7 7 7 7 7 7 6 6 4 4 4
7 6 5 4 3 1 0 2 3 5 5 6 7 8 9 9 9 9 9 9 8 7 7 7 8 9 9 9 9 9 8 8 8 8 8 7 7 7 7 7 8 8 7 7 7 6 5 4 4
8 7 6 4 3 2 1 1 2 3 4 5 6 7 8 8 9 9 9 9 8 8 7 7 8 8 9 9 9 9 8 8 8 8 8 7 7 7 7 7 8 8 7 7 7 7 6 6 5
9 8 6 4 4 3 1 0 1 2 3 5 6 7 8 8 8 9 9 8 8 7 7 7 8 8 8 8 9 9 9 8 8 8 8 8 7 8 7 7 7 8 8 8 7 6 6 5 5
10 9 7 6 5 4 2 1 1 1 2 4 6 7 7 8 8 9 9 8 8 8 8 8 8 8 8 8 8 8 9 9 8 8 8 8 8 8 8 8 8 7 7 7 7 7 7 5 5
11 10 8 7 6 5 4 3 2 1 3 4 6 6 7 8 8 8 8 8 8 8 8 8 8 8 8 8 8 8 9 9 9 9 8 8 7 7 8 8 8 7 6 7 7 7 8 6 5
12 11 9 8 7 6 6 4 4 3 2 4 6 6 6 7 8 7 7 8 8 8 8 8 8 8 8 8 8 8 9 9 9 9 8 8 7 8 7 7 8 7 7 7 8 8 8 7 5
13 11 10 8 8 7 6 5 4 4 3 4 5 5 5 7 8 7 7 9 9 8 8 8 8 8 8 8 8 8 8 8 9 9 8 8 8 8 7 7 7 7 7 7 7 8 8 7 6
14 12 10 9 8 8 7 6 5 4 3 4 4 5 6 7 7 8 8 8 9 9 9 9 8 8 8 8 8 8 8 8 8 8 8 8 8 8 8 7 7 7 7 7 7 7 7 7 6
15 13 12 10 10 9 8 8 6 4 4 4 5 5 6 6 7 7 7 8 9 9 10 9 8 8 8 8 8 8 8 8 8 8 8 8 8 8 7 7 7 7 8 8 8 7 7 7 6
16 15 14 13 11 10 9 9 7 6 5 5 5 5 5 6 7 7 7 8 9 9 10 9 8 8 8 8 9 9 8 8 8 7 7 7 7 8 8 8 8 8 8 8 8 8 7 7 7
17 16 15 14 12 11 10 9 8 7 6 6 6 5 6 6 7 7 7 8 8 9 10 9 9 9 9 9 9 8 8 8 8 7 7 7 8 8 9 9 8 8 9 9 9 9 7 7 7
18 17 15 14 13 12 11 11 9 8 7 7 7 6 7 7 7 7 7 8 9 10 10 9 9 9 9 9 9 8 8 8 9 8 7 8 8 8 9 10 9 9 9 10 10 9 8 7 7
18 17 16 15 15 13 13 12 11 9 9 9 8 8 7 7 7 7 7 8 9 9 9 10 10 11 11 10 9 8 8 9 9 8 8 9 9 9 9 10 10 9 10 10 10 9 8 8 8
18 16 16 15 15 15 14 12 11 11 11 10 9 10 9 7 7 7 7 8 8 9 10 10 10 11 12 11 9 9 9 9 9 8 9 9 9 10 10 10 10 10 11 10 10 10 9 9 9
18 17 16 17 17 16 15 13 13 13 12 12 11 11 10 8 7 7 7 7 8 9 10 11 11 12 11 10 9 9 9 9 9 9 9 10 10 10 10 10 11 11 11 11 11 10 10 10 10
18 18 17 17 18 18 17 15 15 14 14 13 13 11 9 9 9 8 8 8 8 9 10 11 12 12 11 10 9 10 10 11 10 10 10 10 10 10 10 11 11 12 12 12 12 12 11 12 11
19 19 18 18 19 20 18 17 16 16 15 14 13 12 10 10 10 10 9 9 10 10 11 11 11 11 11 10 10 11 11 12 12 11 11 11 11 11 11 11 12 12 12 13 13 12 12 12 12
20 19 18 19 20 21 20 19 18 17 16 16 14 13 12 11 11 10 10 11 11 11 13 12 12 12 10 10 11 12 12 12 12 12 12 12 12 12 12 12 12 12 13 13 13 12 12 13 13
20 20 20 21 21 22 22 22 21 19 18 17 16 14 14 13 12 12 11 12 12 12 13 13 12 12 11 11 12 12 12 12 13 13 13 13 12 12 13 13 14 13 13 13 13 13 13 14 14
20 20 21 21 22 23 23 22 21 19 19 17 16 15 15 15 14 14 13 13 13 12 13 13 12 12 12 12 12 13 12 13 13 13 13 13 13 13 14 14 14 14 13 13 13 14 14 14 15
20 21 21 22 23 23 23 23 20 20 19 18 18 18 17 16 16 16 15 14 14 14 14 14 14 14 14 14 14 14 13 13 13 13 14 13 14 14 14 14 14 14 14 14 13 14 15 15 15
21 22 23 23 23 24 22 23 20 18 18 19 19 19 19 18 18 18 17 15 14 14 14 14 15 16 15 15 14 14 14 14 14 14 14 14 14 14 14 14 14 15 15 15 15 15 15 15 15
22 22 22 23 24 23 21 22 19 18 18 18 19 19 19 18 18 18 17 16 15 14 14 15 16 17 16 15 15 15 15 14 14 14 15 15 16 16 15 15 16 16 16 16 16 16 16 15 16
22 22 23 23 23 23 22 22 18 17 17 18 18 18 18 18 18 17 17 16 15 15 16 16 17 18 18 18 16 15 16 16 15 15 15 15 16 17 17 16 17 17 17 17 17 17 16 16 16
23 24 23 24 24 23 23 22 19 17 16 16 17 18 18 18 19 18 18 17 17 17 17 17 18 19 19 19 18 17 17 17 16 15 16 15 16 16 17 18 18 18 17 17 17 16 16 16 16
24 24 24 25 25 25 24 22 20 18 17 17 17 18 19 19 19 18 19 18 18 18 18 19 19 20 20 20 19 18 19 18 17 17 16 16 16 16 17 18 18 18 18 18 18 17 17 16 16
24 25 26 26 26 26 25 22 20 20 20 20 19 18 19 20 19 20 19 18 18 18 19 20 19 20 20 19 18 18 18 18 17 17 16 16 16 17 18 18 18 19 18 18 18 18 18 18 17
25 25 26 27 27 27 26 23 22 22 21 21 20 19 20 20 20 20 19 19 19 19 19 19 19 19 19 19 18 18 18 18 18 17 17 17 17 18 19 20 19 19 18 18 18 18 18 18 18
Wind_Direction
192 185 186 187 180 113 76 58 44 33 30 36 38 36 33 29 23 19 16 13 11 10 5 4 9 14 17 20 22 24 23 20 18 17 12 8 4 0 0 1 357 353 352 355 357 356 340 323 305
201 206 207 201 187 163 82 46 45 29 28 32 32 29 29 23 20 17 13 12 10 8 5 5 12 18 20 19 17 16 16 16 15 15 10 7 6 2 3 3 359 354 351 353 353 355 352 335 314
209 211 210 206 191 195 124 24 32 22 27 30 26 22 22 19 16 15 10 8 7 7 7 9 13 18 20 19 17 14 13 11 10 11 8 8 8 6 4 1 357 355 353 355 356 356 352 349 338
214 217 218 215 219 210 212 350 21 24 22 24 22 18 16 13 14 11 7 3 1 360 6 10 11 15 19 17 14 11 8 7 5 2 4 7 8 3 1 358 356 356 356 358 356 352 351 349 342
217 220 220 222 227 225 218 266 350 13 12 13 13 12 10 8 3 2 2 3 1 358 3 9 7 10 13 10 8 8 6 4 2 1 4 5 5 1 358 351 352 353 354 356 356 350 345 340 336
223 223 227 228 234 234 237 264 295 339 348 356 2 7 7 4 0 358 359 4 5 0 1 6 9 11 11 7 4 6 7 6 6 3 1 3 1 358 356 356 351 348 351 353 352 350 343 335 327
228 229 230 233 238 241 253 256 276 304 333 352 356 4 3 360 358 1 7 4 2 1 3 5 7 10 9 6 6 9 9 8 6 6 3 2 359 355 354 353 353 349 348 351 349 346 342 337 333
232 235 236 236 236 241 253 256 266 288 316 346 349 355 357 356 356 359 1 360 360 1 3 1 3 6 6 6 9 10 9 8 6 5 4 0 357 353 351 349 347 348 350 352 349 343 344 343 335
237 238 235 235 237 241 246 260 269 274 299 327 341 340 344 352 355 351 349 350 355 357 359 358 0 6 8 7 7 7 7 6 3 1 359 357 355 353 349 345 344 345 348 348 347 346 345 351 354
236 238 235 240 243 243 249 264 273 272 293 315 330 331 339 346 349 349 345 346 349 351 352 353 354 0 3 3 2 0 1 359 358 357 356 356 354 350 347 343 341 343 344 344 345 343 341 339 344
236 236 237 241 244 242 248 262 271 275 283 301 320 334 344 349 352 356 354 348 349 348 348 350 351 350 353 357 356 353 353 352 351 351 352 355 352 349 346 344 342 341 341 341 339 337 332 327 326
236 236 240 242 244 241 247 261 272 276 276 281 298 315 329 341 348 354 356 354 349 346 349 350 345 344 347 351 349 347 344 346 348 346 345 349 347 346 343 342 341 338 337 336 332 330 326 319 314
236 235 237 238 241 244 250 255 264 268 271 279 290 301 312 325 337 345 349 349 345 343 347 346 344 341 343 349 347 345 344 342 343 341 338 341 340 341 339 335 334 331 333 334 329 324 322 314 304
237 236 236 239 242 245 246 246 254 261 267 276 283 292 301 315 328 331 335 340 336 335 338 341 342 339 335 336 338 339 339 337 335 332 330 333 335 333 329 330 330 327 323 326 329 324 316 311 301
238 240 237 238 241 241 244 244 251 257 261 268 277 286 298 308 321 324 325 333 333 332 333 336 339 339 332 329 327 329 330 328 325 325 326 327 329 328 324 324 325 324 321 321 323 322 313 308 299
240 241 237 236 239 243 245 241 248 254 257 263 271 283 291 295 307 314 316 325 330 331 329 329 333 332 328 326 324 322 323 321 319 319 322 323 324 325 325 324 323 320 318 316 313 313 309 306 299
239 237 235 237 241 245 245 245 248 254 258 261 268 278 282 280 289 298 304 312 320 323 320 319 323 324 324 322 319 319 319 316 315 314 314 316 319 321 324 323 321 320 316 311 308 304 302 303 300
239 237 238 238 240 243 246 249 248 252 261 269 272 274 273 278 284 286 293 298 309 316 316 317 317 318 318 316 311 309 310 309 309 309 308 311 314 317 318 318 318 316 313 309 305 302 299 297 295
241 239 239 241 243 243 245 250 250 253 260 268 270 269 274 279 284 290 286 291 303 308 309 313 316 318 314 310 308 305 305 305 303 302 304 305 307 311 313 314 312 313 312 310 308 303 299 294 291
240 240 240 242 245 247 248 252 254 256 260 264 262 261 269 277 280 289 296 292 302 308 315 310 310 313 312 311 311 306 304 303 299 296 296 296 300 306 308 308 309 311 312 312 311 306 300 294 289
241 242 243 244 246 248 250 252 252 254 257 259 258 260 265 271 278 283 291 296 305 307 307 308 307 307 309 313 312 304 301 299 298 296 291 296 298 302 305 304 307 309 310 309 310 307 300 297 292
241 242 242 244 246 249 253 252 249 253 254 254 257 262 265 268 275 280 285 291 294 300 308 305 304 305 309 312 309 306 302 301 301 299 295 294 295 299 302 302 305 306 306 305 305 307 301 297 293
238 240 241 245 248 250 252 255 252 253 255 254 256 262 267 270 274 279 284 287 291 292 297 299 300 302 305 307 306 307 302 297 295 294 294 294 294 297 299 301 304 306 305 303 302 303 302 299 295
237 239 243 246 250 252 255 259 255 254 258 256 258 262 266 270 275 278 281 281 282 284 288 293 296 297 299 303 305 308 304 300 296 291 291 291 292 293 295 296 300 303 303 304 301 300 300 297 296
237 240 244 247 251 254 256 258 260 256 257 258 259 260 264 269 273 277 277 275 277 280 282 284 288 291 293 293 298 301 302 300 297 293 291 292 292 294 295 296 299 302 301 301 300 299 297 295 293
240 243 248 252 255 256 255 258 261 258 257 259 260 260 262 266 269 274 276 272 274 277 280 285 287 288 290 289 293 296 296 297 300 294 290 291 290 292 294 296 298 298 299 299 298 297 295 294 292
242 244 249 254 256 257 256 256 257 258 261 263 263 264 265 264 267 270 272 272 272 276 280 286 290 290 288 289 291 292 296 295 295 294 291 289 294 296 293 294 300 301 300 299 299 299 299 296 292
242 246 249 253 257 259 260 259 260 259 261 261 264 266 265 263 265 268 269 270 271 274 277 284 288 291 292 292 289 292 295 292 292 289 288 290 293 295 297 298 300 301 299 299 297 297 296 295 291
242 245 250 254 257 261 263 264 262 261 261 261 264 268 266 261 263 267 270 272 275 276 278 281 287 290 291 292 291 293 294 290 288 289 290 290 292 295 297 299 298 298 298 298 296 295 292 291 291
245 247 251 254 257 261 265 267 265 265 262 262 262 266 265 262 264 268 274 275 276 279 280 281 286 289 290 291 292 293 293 288 288 289 289 291 292 295 296 298 297 296 297 297 298 296 293 290 289
Height
5890 5891 5891 5893 5893 5893 5892 5892 5891 5890 5890 5890 5889 5889 5888 5888 5889 5890 5887 5885 5884 5884 5883 5882 5881 5880 5879 5878 5877 5876 5876 5875 5875 5874 5874 5873 5872 5872 5871 5870 5870 5869 5868 5867 5866 5865 5865 5865 5865
5890 5891 5892 5893 5893 5893 5893 5892 5891 5891 5891 5890 5890 5889 5889 5888 5888 5887 5886 5885 5885 5884 5883 5883 5881 5880 5879 5878 5877 5877 5876 5876 5875 5874 5874 5873 5872 5871 5871 5870 5870 5869 5868 5867 5866 5865 5864 5864 5864
5890 5891 5893 5893 5892 5893 5893 5892 5892 5892 5891 5891 5891 5890 5889 5889 5888 5887 5887 5886 5885 5884 5884 5883 5882 5880 5879 5878 5877 5877 5876 5875 5875 5874 5874 5873 5872 5871 5871 5870 5869 5868 5867 5867 5866 5865 5865 5864 5863
5890 5892 5893 5893 5892 5893 5893 5893 5892 5892 5892 5891 5891 5891 5890 5889 5889 5888 5887 5886 5886 5885 5884 5883 5882 5881 5880 5879 5878 5877 5876 5875 5875 5874 5873 5873 5872 5871 5871 5870 5869 5868 5867 5866 5866 5865 5864 5864 5863
5890 5891 5892 5892 5892 5893 5893 5892 5892 5892 5892 5892 5891 5891 5890 5890 5889 5888 5887 5887 5886 5885 5884 5883 5882 5881 5880 5879 5878 5877 5876 5875 5874 5873 5873 5872 5872 5871 5870 5869 5869 5868 5866 5866 5865 5865 5864 5863 5863
5890 5891 5892 5892 5892 5892 5892 5892 5892 5892 5892 5892 5891 5891 5890 5890 5889 5889 5888 5887 5886 5885 5884 5883 5882 5881 5880 5879 5878 5877 5876 5875 5874 5873 5872 5872 5871 5871 5870 5869 5868 5867 5867 5866 5865 5864 5863 5863 5862
5889 5890 5890 5890 5891 5891 5892 5892 5892 5891 5892 5892 5891 5891 5890 5890 5890 5889 5888 5887 5886 5885 5884 5883 5882 5881 5880 5879 5878 5877 5876 5875 5874 5873 5872 5871 5871 5870 5869 5869 5868 5867 5867 5866 5865 5864 5863 5862 5862
5887 5889 5889 5889 5889 5890 5891 5891 5891 5891 5891 5891 5891 5891 5891 5890 5890 5889 5888 5887 5886 5885 5884 5883 5882 5881 5880 5879 5878 5877 5876 5875 5874 5873 5872 5871 5870 5869 5869 5868 5867 5866 5866 5865 5864 5863 5862 5861 5861
5886 5888 5888 5889 5889 5889 5890 5890 5891 5891 5891 5890 5891 5891 5891 5890 5890 5889 5888 5887 5886 5885 5884 5883 5882 5881 5880 5879 5878 5877 5876 5875 5874 5873 5872 5871 5870 5869 5868 5867 5866 5865 5865 5864 5863 5863 5862 5861 5860
5884 5886 5887 5888 5888 5888 5889 5890 5890 5890 5890 5890 5890 5890 5890 5890 5890 5889 5888 5887 5886 5885 5884 5883 5882 5881 5880 5879 5878 5877 5876 5874 5873 5872 5871 5870 5869 5868 5867 5866 5865 5865 5864 5863 5862 5862 5861 5860 5859
5882 5884 5885 5886 5887 5887 5888 5889 5889 5889 5890 5890 5890 5890 5890 5890 5889 5888 5888 5887 5885 5885 5884 5883 5882 5881 5880 5878 5877 5876 5875 5874 5872 5871 5870 5870 5869 5868 5867 5866 5865 5864 5863 5862 5862 5861 5860 5860 5859
5880 5882 5883 5885 5885 5886 5887 5887 5888 5888 5889 5889 5889 5889 5889 5889 5889 5888 5887 5886 5885 5884 5883 5882 5881 5880 5879 5878 5877 5876 5874 5873 5872 5871 5870 5869 5868 5867 5866 5865 5864 5863 5862 5862 5861 5860 5859 5859 5858
5878 5879 5881 5883 5884 5885 5885 5886 5886 5887 5887 5888 5888 5888 5888 5888 5887 5887 5886 5886 5885 5883 5882 5881 5880 5879 5878 5877 5876 5875 5873 5872 5871 5870 5869 5868 5867 5866 5865 5864 5863 5862 5861 5860 5859 5858 5858 5857 5857
5876 5877 5879 5881 5882 5883 5883 5884 5885 5885 5886 5886 5887 5887 5887 5887 5887 5886 5886 5885 5884 5883 5882 5881 5880 5879 5878 5876 5875 5874 5872 5871 5870 5869 5868 5867 5866 5865 5864 5863 5862 5861 5860 5859 5858 5857 5856 5856 5855
5873 5875 5877 5879 5879 5880 5881 5882 5883 5883 5884 5885 5885 5885 5886 5886 5885 5885 5884 5884 5883 5882 5881 5879 5878 5877 5876 5875 5873 5872 5871 5870 5869 5868 5867 5865 5864 5863 5862 5861 5861 5860 5858 5857 5856 5855 5854 5854 5853
5871 5873 5875 5876 5877 5877 5880 5881 5881 5881 5882 5883 5883 5883 5884 5884 5884 5884 5883 5882 5881 5880 5879 5878 5877 5876 5874 5873 5872 5871 5870 5869 5868 5867 5865 5864 5863 5862 5861 5860 5859 5858 5857 5855 5854 5853 5853 5852 5851
5868 5870 5871 5873 5874 5874 5876 5877 5879 5878 5879 5880 5880 5881 5881 5882 5882 5882 5881 5880 5879 5879 5878 5876 5875 5874 5872 5871 5870 5869 5868 5867 5866 5865 5864 5863 5861 5860 5859 5858 5857 5856 5855 5853 5852 5851 5851 5850 5849
5865 5867 5868 5870 5871 5871 5872 5874 5876 5876 5877 5878 5879 5879 5879 5880 5880 5879 5879 5878 5878 5877 5876 5874 5873 5871 5870 5869 5868 5867 5866 5865 5864 5863 5862 5860 5859 5858 5857 5856 5855 5854 5853 5851 5850 5849 5848 5847 5847
5861 5864 5866 5867 5867 5868 5870 5871 5872 5873 5874 5875 5876 5877 5877 5878 5878 5877 5877 5876 5876 5875 5873 5872 5871 5869 5868 5867 5866 5865 5863 5862 5861 5860 5859 5858 5857 5856 5855 5854 5853 5851 5850 5848 5847 5846 5845 5844 5844
5858 5860 5863 5864 5864 5865 5867 5868 5869 5870 5871 5872 5873 5874 5875 5875 5875 5875 5874 5874 5873 5872 5871 5870 5868 5867 5866 5865 5863 5862 5861 5859 5858 5857 5856 5856 5855 5854 5853 5851 5850 5849 5847 5845 5844 5843 5843 5842 5841
5855 5857 5859 5860 5861 5862 5863 5864 5866 5867 5867 5869 5870 5871 5871 5872 5872 5872 5871 5871 5871 5870 5869 5868 5866 5865 5863 5862 5861 5860 5858 5857 5855 5854 5854 5853 5852 5851 5850 5849 5847 5846 5844 5843 5841 5840 5839 5838 5837
5852 5854 5855 5856 5857 5858 5860 5860 5863 5863 5864 5865 5866 5867 5868 5869 5869 5869 5868 5868 5867 5867 5866 5865 5864 5862 5861 5859 5858 5857 5856 5854 5853 5852 5851 5850 5850 5849 5847 5846 5844 5842 5841 5839 5838 5837 5836 5835 5833
5848 5849 5851 5852 5853 5854 5855 5856 5859 5860 5861 5862 5863 5864 5864 5865 5866 5865 5864 5864 5864 5863 5863 5862 5861 5859 5858 5857 5855 5853 5853 5852 5850 5849 5848 5847 5847 5846 5844 5843 5841 5840 5838 5836 5835 5833 5832 5831 5830
5844 5846 5847 5847 5848 5850 5852 5852 5854 5856 5857 5858 5859 5860 5861 5861 5862 5862 5861 5860 5860 5859 5859 5858 5857 5856 5854 5853 5851 5850 5849 5848 5847 5846 5845 5844 5844 5843 5841 5839 5838 5836 5834 5833 5831 5830 5828 5827 5826
5840 5842 5843 5844 5844 5846 5848 5848 5851 5852 5853 5854 5855 5856 5856 5857 5858 5858 5857 5856 5856 5855 5855 5855 5854 5852 5851 5850 5848 5847 5846 5844 5843 5842 5841 5841 5840 5839 5837 5836 5834 5833 5831 5829 5828 5826 5824 5823 5822
5836 5838 5840 5841 5841 5842 5843 5844 5848 5848 5849 5850 5851 5852 5853 5853 5853 5854 5853 5853 5852 5851 5851 5850 5849 5848 5847 5846 5844 5843 5842 5841 5839 5839 5838 5837 5836 5835 5834 5832 5831 5829 5827 5826 5824 5822 5821 5819 5817
5832 5833 5835 5836 5836 5837 5838 5840 5843 5844 5845 5846 5847 5848 5848 5849 5849 5849 5849 5849 5848 5847 5847 5846 5845 5844 5843 5842 5840 5840 5839 5837 5836 5835 5834 5833 5832 5830 5829 5829 5827 5825 5823 5822 5820 5818 5816 5815 5813
5827 5829 5830 5831 5831 5832 5833 5835 5839 5840 5841 5842 5843 5844 5844 5844 5845 5845 5845 5844 5844 5843 5843 5842 5841 5839 5838 5837 5837 5836 5834 5833 5831 5830 5830 5829 5828 5826 5825 5824 5822 5821 5819 5818 5816 5814 5812 5810 5809
5823 5824 5824 5826 5826 5827 5828 5833 5834 5835 5836 5837 5838 5839 5839 5840 5840 5840 5840 5839 5839 5839 5838 5837 5836 5835 5834 5833 5832 5831 5829 5828 5827 5826 5825 5824 5823 5822 5821 5819 5818 5816 5814 5813 5811 5809 5808 5806 5804
5817 5818 5820 5821 5822 5822 5823 5829 5828 5830 5831 5832 5833 5834 5834 5835 5835 5835 5835 5835 5834 5834 5833 5832 5831 5830 5829 5828 5827 5826 5825 5824 5823 5822 5821 5820 5819 5818 5816 5815 5813 5811 5810 5808 5806 5804 5803 5801 5800